This is the latest recevied weather packets stored in our database for station/object AB2HM. If no packets are shown the sender has not sent any weather packets the latest 10 day(s).
| Time | Temp. | Humidity | Pressure | Rain* | Wind** | Luminosity | Snow |
|---|---|---|---|---|---|---|---|
| 1777448700 | 12.78° C | 63% | 1017.2 hPa | 0 mm | - | - | - |
| 1777446883 | 12.78° C | 62% | 1017.4 hPa | 0 mm | - | - | - |
| 1777445077 | 12.78° C | 60% | 1018.1 hPa | 0 mm | - | - | - |
| 1777443273 | 12.78° C | 59% | 1018 hPa | 0 mm | - | - | - |
| 1777441457 | 13.33° C | 58% | 1018.6 hPa | 0 mm | - | - | - |
| 1777439646 | 13.33° C | 58% | 1018.5 hPa | 0 mm | - | - | - |
| 1777437839 | 13.33° C | 58% | 1018.6 hPa | 0 mm | - | - | - |
| 1777436026 | 13.89° C | 57% | 1019 hPa | 0 mm | - | - | - |
| 1777434212 | 13.89° C | 57% | 1019.2 hPa | 0 mm | - | - | - |
| 1777432409 | 14.44° C | 57% | 1019.2 hPa | 0 mm | - | - | - |
| 1777430607 | 14.44° C | 58% | 1018.6 hPa | 0 mm | - | - | - |
| 1777428797 | 14.44° C | 57% | 1018.7 hPa | 0 mm | - | - | - |
| 1777426982 | 15° C | 59% | 1018.2 hPa | 0 mm | - | - | - |
| 1777425180 | 15° C | 65% | 1018.6 hPa | 0 mm | - | - | - |
| 1777423376 | 15° C | 62% | 1019.1 hPa | 0 mm | - | - | - |
| 1777421569 | 15.56° C | 61% | 1019.1 hPa | 0 mm | - | - | - |
| 1777419772 | 16.11° C | 60% | 1018.8 hPa | 0 mm | - | - | - |
| 1777417963 | 16.11° C | 59% | 1019 hPa | 0 mm | - | - | - |
| 1777416148 | 16.67° C | 56% | 1019 hPa | 0 mm | - | - | - |
| 1777414344 | 16.67° C | 55% | 1019.1 hPa | 0 mm | - | - | - |
| 1777412544 | 16.67° C | 52% | 1019 hPa | 0 mm | - | - | - |
| 1777410719 | 17.22° C | 49% | 1018.9 hPa | 0 mm | - | - | - |
| 1777408919 | 16.67° C | 48% | 1019.1 hPa | 0 mm | - | - | - |
| 1777407115 | 17.22° C | 47% | 1019.2 hPa | 0 mm | - | - | - |
| 1777405313 | 17.22° C | 48% | 1020 hPa | 0 mm | - | - | - |
* Rain latest hour (hover to see other rain measurements)
** Current wind speed in m/s (hover to see current wind gust speed)